Flag Weather past 2 weeks in Madaba, Jordan

Now
50 °F

Passing clouds.


Feels Like: 47 °F
Forecast: 42 / 55 °F
Wind: 7 mph from Southwest

Location: Queen Alia Airport

Current Time: Nov 24, 2014 at 7:35:53 AM

Latest Report: Nov 24, 2014 at 6:00 AM


Visibility: 4 mi

Pressure: 29.95 "Hg

Humidity: 94%

Dew point: 48 °F

Location of MadabaLocation

Historic Weather in Madaba — Graph

°F

Madaba temperature yesterday

Maximum temperature yesterday: 59 °F (at 12:00 PM)
Minimum temperature yesterday: 48 °F (at 2:00 AM)
Average temperature yesterday: 53 °F

Past Weeks' High & Low Weather Summary

 TemperatureHumidityPressure
High77 °F (Nov 10, 2:00 PM)100% (Nov 17, 6:00 AM)30.24 "Hg (Nov 17, 6:00 AM)
Low41 °F (Nov 13, 3:00 AM)7% (Nov 9, 2:00 PM)29.92 "Hg (Nov 16, 1:00 PM)
Average58 °F51%30.05 "Hg
* Reported Nov 9 6:00 AM — Nov 24 6:00 AM, Madaba, Weather by CustomWeather, © 2014

Note: Actual official high and low records may vary slightly from our data, if they occured in-between our weather recording intervals... More about our weather records

Advertising

Madaba weather history for previous 24 hours

 ConditionsComfort  
Time TempWeatherWind HumidityBarometerVisibility
6:00 AM
Nov 24
50 °FPassing clouds.7 mph94%29.95 "Hg4 mi
5:00 AM50 °FPassing clouds.9 mph88%29.92 "Hg4 mi
3:00 AM48 °FPassing clouds.7 mph94%29.92 "Hg4 mi
1:00 AM50 °FPartly cloudy.7 mph88%29.95 "Hg4 mi
12:00 AM50 °FPartly cloudy.7 mph88%29.95 "Hg4 mi
11:00 PM
Nov 23
50 °FPartly cloudy.5 mph88%29.95 "Hg4 mi
10:00 PM52 °FPartly cloudy.9 mph82%29.98 "Hg4 mi
9:00 PM52 °FPartly cloudy.7 mph77%29.98 "HgN/A
8:00 PM52 °FPartly cloudy.5 mph77%29.98 "HgN/A
7:00 PM54 °FPassing clouds.7 mph77%29.98 "Hg5 mi
6:00 PM54 °FPartly cloudy.9 mph77%29.98 "Hg5 mi
5:00 PM59 °FPartly cloudy.9 mph63%29.98 "Hg5 mi
4:00 PM59 °FBroken clouds.9 mph63%29.98 "Hg5 mi
3:00 PM59 °FBroken clouds.9 mph59%29.98 "Hg5 mi
2:00 PM59 °FPartly sunny.12 mph55%30.01 "Hg4 mi
1:00 PM59 °FPartly sunny.9 mph55%30.01 "Hg4 mi
12:00 PM59 °FPartly sunny.12 mph51%30.04 "Hg4 mi
11:00 AM57 °FScattered clouds.12 mph59%30.04 "Hg4 mi
10:00 AM55 °FScattered clouds.5 mph72%30.07 "Hg4 mi
9:00 AM52 °FScattered clouds.5 mph82%30.07 "Hg4 mi
8:00 AM50 °FScattered clouds.No wind82%30.04 "Hg4 mi
7:00 AM50 °FPartly sunny.No wind76%30.04 "Hg4 mi
Weather by CustomWeather, © 2014

See weather overviewHow to use our weather pages